This is the latest recevied weather packets stored in our database for station/object KJ5FA-10. If no packets are shown the sender has not sent any weather packets the latest 10 day(s).
| Time | Temp. | Humidity | Pressure | Rain* | Wind** | Luminosity | Snow |
|---|---|---|---|---|---|---|---|
| 1788449078 | 29.44° C | 70% | 1017.5 hPa | 0 mm | - | - | - |
| 1788448176 | 28.33° C | 73% | 1017.4 hPa | 0 mm | - | - | - |
| 1788446379 | 27.78° C | 77% | 1017.5 hPa | 0 mm | - | - | - |
| 1788444577 | 26.67° C | 79% | 1017.9 hPa | 0 mm | - | - | - |
| 1788442776 | 25.56° C | 85% | 1017.8 hPa | 0 mm | - | - | - |
| 1788440977 | 25° C | 87% | 1017.8 hPa | 0 mm | - | - | - |
| 1788439177 | 23.33° C | 94% | 1018 hPa | 0 mm | - | - | - |
| 1788433778 | 23.33° C | 91% | 1017.1 hPa | 0 mm | - | - | - |
| 1788430176 | 23.89° C | 90% | 1016.4 hPa | 0 mm | - | - | - |
| 1788429279 | 23.89° C | 90% | 1016.4 hPa | 0 mm | - | - | - |
| 1788428376 | 23.89° C | 90% | 1016.3 hPa | 0 mm | - | - | - |
| 1788426577 | 23.89° C | 89% | 1016.3 hPa | 0 mm | - | - | - |
| 1788425677 | 23.89° C | 88% | 1016.1 hPa | 0 mm | - | - | - |
| 1788424776 | 24.44° C | 88% | 1016.2 hPa | 0 mm | - | - | - |
| 1788422976 | 24.44° C | 86% | 1016.3 hPa | 0 mm | - | - | - |
| 1788421177 | 25° C | 85% | 1016 hPa | 0 mm | - | - | - |
| 1788419797 | 25° C | 83% | 1016.3 hPa | 0 mm | - | - | - |
| 1788419556 | 25° C | 83% | 1016.1 hPa | 0 mm | - | - | - |
| 1788419437 | 25° C | 83% | 1016.3 hPa | 0 mm | - | - | - |
| 1788418465 | 25.56° C | 82% | 1016.1 hPa | 0 mm | - | - | - |
| 1788417565 | 25.56° C | 81% | 1016.4 hPa | 0 mm | - | - | - |
| 1788416665 | 25.56° C | 80% | 1016.2 hPa | 0 mm | - | - | - |
| 1788415765 | 25.56° C | 79% | 1016.3 hPa | 0 mm | - | - | - |
| 1788414865 | 26.11° C | 78% | 1016.4 hPa | 0 mm | - | - | - |
| 1788413965 | 26.11° C | 78% | 1016.2 hPa | 0 mm | - | - | - |
* Rain latest hour (hover to see other rain measurements)
** Current wind speed in m/s (hover to see current wind gust speed)